Regional Weather Roundup
Issued by NWS Portland, ME

Home | Current Version | Previous Version | Text Only | Print | Product List | Glossary On
Versions: 1 2 3 4 5 6 7 8 9 10 11 12 13 14 15 16 17 18 19 20 21 22 23 24 25 26 27 28 29 30 31 32 33 34 35 36 37 38 39 40 41 42 43 44 45 46 47 48 49 50
000
ASUS41 KGYX 011110
RWRGYX
WEATHER ROUNDUP FOR MAINE AND NEW HAMPSHIRE
NATIONAL WEATHER SERVICE GRAY ME
700 AM EDT WED OCT 01 2014

MEZ002-005-006-010-012-015-018-020-021-024-026-027-029-011200-
MAINE

CITY           SKY/WX    TMP DP  RH WIND       PRES   REMARKS
PORTLAND       CLOUDY    56  51  84 N8        30.09R
SANFORD        CLOUDY    55  48  76 NE9       30.09R
BAR HARBOR     CLOUDY    55  54  94 NE7       30.11R
WISCASSET      CLOUDY    56  51  84 CALM      30.11R
ROCKLAND       CLOUDY    55  52  88 NE7G17    30.09R
FRYEBURG       CLOUDY    57  52  83 CALM      30.11R
LEWISTONAUBURN CLOUDY    55  48  76 NE12      30.11R
AUGUSTA        CLOUDY    53  50  89 N9        30.12R
WATERVILLE     CLOUDY    54  46  76 NE6       30.08R
BANGOR         CLOUDY    53  49  86 N8        30.13R
GREENVILLE       N/A     52  49  89 CALM      30.12R
MILLINOCKET    CLOUDY    51  47  86 N7        30.17R
HOULTON        CLOUDY    49  47  93 N5        30.16R FOG
PRESQUE ISLE   CLOUDY    46  43  87 NE8       30.18R
FRENCHVILLE    FOG       38  37  97 N9        30.19R VSB 1/4
CARIBOU        CLOUDY    46  44  93 N8        30.18R
$$

NHZ002-005-008-009-011-012-014-011200-
NEW HAMPSHIRE

CITY           SKY/WX    TMP DP  RH WIND       PRES   REMARKS
PORTSMOUTH     CLOUDY    57  53  88 N7        30.06R
ROCHESTER      CLOUDY    57  52  83 N6        30.07R
NASHUA         CLOUDY    57  56  97 N3        30.07R
MANCHESTER     CLOUDY    57  53  86 N7        30.06R
CONCORD        CLOUDY    57  53  86 NW3       30.08R
LACONIA        CLOUDY    57  52  82 E14       30.08R
PLYMOUTH       MOCLDY    56  56 100 CALM      30.09R
BERLIN         CLOUDY    53  52  96 CALM      30.11R
WHITEFIELD     CLOUDY    51  48  89 CALM      30.10R
JAFFREY        LGT RAIN  54  53  97 VRB5      30.08S
LEBANON        CLOUDY    57  52  83 CALM      30.09R
MT WASHINGTON  CLOUDY    43  39  87 NE18        N/A
$$

VTZ005-007-008-011200-
VERMONT

CITY           SKY/WX    TMP DP  RH WIND       PRES   REMARKS
ST JOHNSBURY     N/A     56  53  90 MISG      30.09R
MONTPELIER     CLOUDY    53  53 100 CALM      30.13R FOG
BURLINGTON     CLOUDY    53  51  93 N6        30.11R FOG
$$

MAZ007-012-024-CTZ003-RIZ002-NYZ038-NYZ072-011200-
SOUTHERN NEW ENGLAND AND NY

CITY           SKY/WX    TMP DP  RH WIND       PRES   REMARKS
BOSTON         CLOUDY    57  56  96 N13       30.04R
WORCESTER      LGT RAIN  54  53  97 NE13G21   30.04R FOG
NANTUCKET      CLOUDY    63  61  93 NE15      29.96R
PROVIDENCE     CLOUDY    58  56  93 N16       30.01S
HARTFORD       LGT RAIN  59  56  89 N6        30.03R
ALBANY         CLOUDY    60  56  86 CALM      30.05R
NEW YORK CITY  LGT RAIN  61  58  90 N9        30.01R
$$

ANZ081-ANZ082-ANZ150-NHZ014-MEZ023>029-011200-
COASTAL MARINE OBSERVATIONS

STATION/POSITION TIME  TEMP    WIND        PRES    WAVE
                       AIR SEA DIR/SP/G            HT/PER
                 (UTC) (F)     (DEG/KT/KT) (MB)    (FT/S)
MATINICUS ROCK   1100           30/ 14/ 14 1017.9R
PORTLAND WX BUOY 1050   57 57   20/ 14/ 16 1018.3R   2/ 5
WELLS            1000   57 57   20/  9/ 13 1017.1R
ISLE OF SHOALS   1000   57      30/ 18/ 20 1016.7R
JEFFREYS LEDGE   1021      57                N/A     4/ 6
CASHES LEDGE BUO 1050   57 59              1016.6R   4/ 4
$$

.............KEY..............
   WCI - WIND CHILL
   TC  - TEMPERATURE IN CELSIUS
   VSB - VISIBILITY IN MILES
   HX  - HEAT INDEX
   FAIR- INDICATES FEW OR NO CLOUDS BELOW 12,000 FT, WITH NO
         SIGNIFICANT WEATHER AND/OR OBSTRUCTIONS TO VISIBILITY.




USA.gov is the U.S. government's official web portal to all federal, state and local government web resources and services.